Wind_Speed
23 28 31 33 35 33 31 31 34 37 35 34 34 37 36 42 44 45 45 42 40 42 39 40 35 35 40 37 41 44 51 55 49 52 54 58 55 46 47 57 63 71 82 88
21 24 24 28 33 35 35 31 33 36 39 35 30 35 36 41 43 43 46 46 46 48 49 50 40 45 49 55 55 56 57 52 50 57 55 60 53 56 57 53 55 53 78 90
25 25 24 25 24 26 30 28 29 32 36 39 37 36 38 41 43 43 44 47 49 51 52 54 52 55 57 58 57 60 58 67 65 63 69 59 57 54 57 58 63 60 57 80
14 18 22 22 23 24 25 28 30 31 33 37 37 37 39 39 40 44 47 50 51 51 52 55 57 56 58 59 61 63 64 66 67 77 77 83 74 61 55 59 65 68 65 67
13 12 15 19 22 22 22 27 29 30 29 32 32 32 34 39 42 45 48 48 51 57 57 56 58 57 58 61 64 66 70 72 70 76 85 84 84 71 64 57 60 62 69 72
9 10 13 16 19 19 20 24 29 34 33 34 32 32 37 37 42 45 49 53 53 54 53 55 56 56 61 65 66 67 70 73 77 85 83 88 88 79 74 69 64 63 66 69
6 9 14 16 17 16 17 21 23 26 32 30 31 29 32 35 41 45 48 50 51 50 53 53 51 57 60 64 67 69 72 76 83 87 92 90 89 89 77 73 65 65 66 71
9 9 12 16 17 17 19 23 18 18 24 33 33 36 29 40 42 44 43 49 53 54 58 61 62 62 66 70 68 70 73 81 85 96 97 95 92 93 79 74 68 68 71 71
18 17 19 16 16 16 20 23 28 28 30 30 37 41 38 41 43 46 49 57 61 64 65 67 70 72 78 80 79 78 81 87 92 101 101 102 97 92 80 73 68 68 68 70
24 20 14 11 16 21 22 25 28 31 34 32 28 40 50 48 50 54 59 62 68 71 73 74 79 79 83 86 89 87 86 91 97 108 107 111 100 97 82 74 69 67 67 69
23 21 20 22 24 26 28 29 32 32 38 38 36 40 51 52 57 60 64 67 69 71 76 83 85 86 89 94 95 95 95 94 102 111 116 114 107 97 85 76 71 68 67 68
33 26 25 29 29 33 36 36 41 41 39 42 43 40 52 58 60 63 66 67 69 72 77 79 84 90 93 99 100 102 102 102 107 113 118 122 104 93 83 76 72 69 67 67
28 28 30 34 34 38 41 45 47 50 50 48 52 51 62 63 66 67 67 69 71 74 78 88 91 96 98 103 104 106 107 107 112 120 123 117 98 89 80 75 72 70 68 68
21 28 31 34 39 40 43 51 56 55 55 52 60 60 63 66 71 74 76 78 77 86 90 94 95 96 99 103 105 105 109 111 115 118 122 112 97 87 78 72 69 68 67 68
24 30 29 39 42 39 43 52 60 62 66 66 59 70 74 74 75 79 81 83 84 87 92 92 92 95 103 105 107 107 110 113 117 122 121 107 94 82 74 70 69 68 67 68
32 29 29 31 38 41 44 58 60 65 68 71 74 69 77 76 80 83 86 88 89 91 96 98 101 102 111 112 112 112 115 116 120 124 117 105 90 79 74 70 69 69 69 70
44 41 38 38 44 45 48 60 60 62 69 74 76 79 78 78 81 83 88 91 94 95 97 101 104 106 111 118 117 117 118 117 121 123 113 99 85 77 72 70 69 69 69 69
49 49 49 46 50 48 56 67 66 68 74 82 78 79 82 81 78 84 92 93 94 99 103 108 111 109 117 121 123 122 123 121 121 122 105 92 79 74 71 69 69 69 68 64
54 55 56 55 53 52 62 71 71 72 72 76 77 78 80 81 80 85 94 96 98 106 111 113 116 117 122 125 127 129 127 125 124 112 97 86 77 72 70 70 69 68 64 61
59 61 59 63 59 55 65 69 70 70 71 74 78 80 83 86 91 87 95 101 107 111 116 120 120 120 126 129 130 132 128 124 119 101 91 82 76 71 69 69 68 65 60 56
60 58 60 63 64 63 70 72 75 78 78 80 85 88 88 91 97 101 104 107 113 119 122 124 125 126 129 133 133 131 126 121 104 93 84 79 74 70 69 68 65 61 57 52
60 64 67 68 72 71 75 77 80 82 82 86 84 90 94 97 101 106 110 115 118 120 123 125 128 129 132 133 135 124 124 107 95 89 81 76 72 70 67 64 62 57 54 50
64 69 69 76 72 77 79 81 83 87 88 87 92 94 101 103 106 111 113 118 122 127 130 129 131 131 134 134 124 122 113 99 91 83 77 72 70 69 65 60 58 53 50 47
71 78 80 79 76 80 82 87 90 89 91 94 97 100 103 108 112 115 120 124 130 133 136 127 127 132 133 127 121 113 101 93 85 77 72 69 69 67 62 56 54 50 48 44
80 86 88 80 83 82 91 95 95 93 97 104 107 110 112 113 117 121 125 131 134 139 131 127 131 131 130 119 115 99 95 87 78 72 70 68 66 63 60 53 51 47 44 41
90 94 95 89 91 95 88 95 100 100 104 109 112 112 115 119 121 124 128 136 134 136 131 130 128 127 122 114 98 96 89 80 73 70 68 66 62 61 56 51 46 44 41 39
Wind_Direction
62 69 56 56 55 47 41 45 52 46 50 42 41 38 43 31 34 35 33 33 31 29 24 16 16 20 19 10 11 9 6 5 356 346 334 316 308 283 286 261 262 253 244 239
72 58 49 51 54 52 49 43 41 34 35 40 32 33 31 27 27 25 25 27 27 26 22 17 13 14 10 9 5 1 360 353 347 348 346 346 321 301 297 289 270 263 250 246
78 69 64 61 49 45 43 41 33 30 27 23 26 25 22 23 21 20 20 14 11 10 10 7 10 3 4 2 359 354 353 354 349 344 344 331 327 320 298 291 290 283 271 250
63 64 55 52 46 44 31 30 28 25 25 25 21 20 15 12 11 11 8 7 4 3 360 358 356 356 355 353 351 351 350 348 347 344 340 340 333 320 313 293 290 288 281 276
57 57 45 34 30 32 24 16 14 17 20 23 21 15 13 6 5 4 0 359 356 351 353 352 350 351 351 350 349 345 346 343 343 342 342 337 333 325 316 305 288 285 285 282
10 30 26 19 22 23 29 26 14 5 5 3 12 9 4 3 357 357 355 352 351 349 347 344 345 346 344 344 343 343 343 342 342 340 336 336 335 324 320 311 298 288 283 280
356 1 3 356 6 28 19 13 10 2 355 3 360 9 352 360 355 352 348 345 345 344 342 343 344 344 340 338 338 337 338 340 341 340 336 334 331 330 319 312 302 290 283 280
331 332 344 333 344 354 354 2 24 22 3 352 359 358 6 352 353 347 344 347 348 349 349 346 344 338 338 340 336 332 336 337 338 337 335 334 330 328 319 313 304 295 286 281
314 315 314 319 322 342 342 342 344 348 351 354 342 342 355 354 351 347 343 342 342 343 344 343 341 342 341 339 337 334 336 335 333 336 337 335 332 329 320 311 304 297 290 285
317 310 332 320 319 330 337 335 334 334 338 349 345 340 334 342 342 340 339 337 336 334 335 337 337 337 336 336 333 334 334 329 332 337 332 335 332 329 321 312 306 298 291 286
315 308 315 342 331 327 325 328 329 335 338 341 5 345 333 333 336 334 334 333 331 331 331 332 332 334 334 335 334 333 331 331 330 333 333 333 332 328 321 313 305 299 292 288
320 301 307 314 330 325 321 325 326 331 336 330 346 341 331 329 335 332 331 330 330 331 330 331 332 332 332 332 333 333 331 330 329 331 330 333 329 327 320 312 304 300 294 289
314 299 298 307 318 324 316 316 319 324 324 326 334 336 329 329 330 331 331 328 328 327 328 329 331 329 328 329 330 331 332 332 328 331 331 331 328 325 318 311 306 302 296 294
305 302 295 296 307 315 317 314 312 319 321 325 327 330 327 326 325 325 325 326 327 327 328 328 327 327 327 327 328 329 330 330 329 330 330 331 327 323 317 311 306 301 299 298
304 302 309 303 302 311 312 308 310 318 320 325 329 328 326 323 320 323 326 327 329 327 326 326 325 326 330 327 328 329 329 331 328 330 329 329 326 321 316 312 308 305 303 302
294 295 299 301 302 310 313 306 309 315 318 322 324 327 321 319 318 321 322 324 324 322 323 323 324 326 328 329 328 327 327 328 328 328 329 327 324 320 316 313 311 309 307 303
297 295 302 298 301 309 311 301 307 314 315 315 318 319 318 318 318 321 319 321 324 326 326 327 327 326 327 328 327 326 327 328 328 328 329 325 323 319 316 315 313 309 307 305
293 291 293 298 300 309 309 301 310 313 314 311 315 314 313 314 317 318 317 321 323 328 327 328 326 327 326 328 327 328 328 327 327 329 327 324 322 319 317 317 313 310 308 307
291 293 294 298 302 308 306 300 307 306 308 308 309 308 310 313 315 316 316 319 320 324 325 327 326 326 326 326 326 327 328 326 328 328 325 325 321 319 319 316 313 311 311 309
291 294 299 300 303 303 299 299 301 305 305 303 303 308 311 312 314 316 316 318 319 322 324 325 325 325 325 325 327 327 327 326 327 326 325 323 321 321 320 315 314 313 313 310
288 289 293 293 296 299 297 298 302 303 302 302 303 305 309 311 314 316 318 319 319 321 322 323 324 323 323 325 326 327 325 326 326 324 325 322 321 321 318 316 316 316 314 313
286 285 286 287 292 297 298 300 302 303 305 305 306 307 308 310 311 314 315 317 318 319 319 320 322 321 323 325 325 325 325 325 325 324 323 322 321 320 318 318 316 317 317 316
283 287 291 293 297 299 301 302 303 304 306 307 307 309 309 310 311 312 313 316 317 319 320 318 319 320 323 324 325 324 325 324 324 323 321 322 321 319 319 319 318 320 319 317
287 288 291 291 293 296 298 299 301 304 308 309 309 308 308 309 311 313 315 317 318 319 319 319 318 320 322 325 324 324 324 323 322 321 322 322 321 319 320 322 321 322 319 318
292 290 289 292 292 295 299 300 301 301 303 306 307 308 309 310 312 312 314 316 317 318 318 317 320 320 322 322 323 323 324 322 321 322 323 321 320 320 321 323 322 322 319 318
290 290 292 295 295 297 297 297 298 300 302 303 306 308 308 309 311 313 314 314 316 317 317 318 319 320 321 321 321 322 322 320 322 322 321 321 321 320 321 323 323 322 319 318
Height
10669 10664 10662 10660 10655 10650 10646 10644 10642 10639 10636 10631 10628 10625 10621 10616 10611 10607 10602 10598 10593 10588 10584 10581 10575 10570 10566 10561 10556 10551 10545 10539 10534 10528 10521 10514 10512 10508 10508 10506 10505 10505 10503 10502
10670 10667 10663 10661 10657 10653 10649 10646 10642 10637 10635 10632 10628 10624 10620 10615 10610 10605 10600 10596 10592 10588 10582 10576 10571 10566 10561 10554 10549 10544 10539 10533 10527 10521 10514 10508 10499 10493 10489 10484 10486 10483 10481 10480
10672 10670 10666 10663 10658 10654 10651 10647 10642 10638 10633 10627 10624 10620 10615 10611 10606 10601 10596 10591 10586 10581 10577 10572 10566 10559 10553 10547 10541 10535 10528 10522 10514 10506 10500 10492 10485 10477 10469 10466 10460 10458 10456 10459
10673 10669 10666 10663 10659 10655 10650 10646 10641 10636 10633 10627 10622 10616 10611 10607 10603 10598 10593 10588 10583 10578 10572 10566 10560 10554 10547 10540 10533 10526 10518 10510 10500 10491 10483 10474 10465 10457 10450 10442 10436 10431 10431 10426
10673 10669 10666 10662 10658 10654 10650 10645 10641 10638 10635 10630 10625 10619 10614 10606 10601 10595 10590 10585 10579 10573 10566 10560 10554 10547 10538 10530 10522 10514 10505 10496 10486 10476 10466 10456 10446 10436 10426 10419 10412 10406 10400 10396
10671 10668 10665 10662 10658 10654 10650 10646 10641 10635 10631 10626 10622 10617 10612 10606 10599 10593 10588 10583 10577 10570 10562 10554 10546 10538 10529 10520 10512 10502 10493 10484 10474 10465 10453 10443 10431 10418 10407 10397 10386 10380 10374 10369
10668 10666 10663 10659 10657 10653 10650 10646 10642 10636 10630 10626 10619 10616 10611 10604 10598 10591 10585 10578 10571 10564 10556 10547 10539 10530 10520 10511 10501 10490 10480 10469 10460 10451 10439 10426 10412 10399 10385 10373 10363 10353 10346 10341
10666 10664 10661 10657 10652 10649 10645 10641 10639 10636 10630 10621 10616 10611 10608 10600 10593 10586 10580 10573 10565 10556 10547 10538 10529 10520 10511 10501 10489 10478 10465 10455 10445 10434 10422 10408 10392 10377 10361 10350 10336 10326 10318 10311
10662 10659 10657 10654 10649 10644 10640 10637 10633 10629 10626 10620 10612 10607 10600 10595 10589 10581 10573 10564 10555 10545 10536 10527 10519 10510 10499 10488 10477 10463 10447 10437 10426 10415 10400 10385 10368 10351 10337 10325 10312 10303 10294 10285
10656 10654 10651 10648 10644 10640 10636 10632 10628 10624 10619 10618 10613 10603 10589 10585 10580 10573 10563 10554 10546 10536 10526 10516 10507 10496 10484 10473 10461 10446 10431 10418 10407 10394 10378 10361 10343 10326 10311 10298 10286 10276 10268 10260
10652 10649 10645 10642 10638 10633 10630 10625 10620 10616 10610 10605 10606 10600 10583 10579 10571 10564 10555 10546 10536 10526 10512 10501 10491 10480 10468 10456 10443 10429 10414 10398 10386 10372 10355 10335 10316 10299 10284 10271 10259 10250 10241 10233
10646 10643 10639 10634 10630 10625 10618 10614 10607 10605 10603 10598 10596 10595 10579 10567 10561 10554 10544 10535 10524 10512 10501 10490 10478 10464 10451 10438 10425 10411 10395 10377 10364 10347 10328 10309 10289 10272 10257 10244 10233 10224 10216 10207
10642 10638 10632 10626 10622 10617 10608 10601 10598 10594 10590 10588 10581 10581 10562 10555 10548 10538 10530 10520 10511 10501 10488 10476 10465 10451 10437 10422 10406 10390 10373 10356 10340 10322 10303 10283 10263 10245 10231 10219 10207 10198 10188 10180
10636 10632 10628 10624 10617 10612 10605 10592 10584 10583 10580 10580 10567 10564 10559 10545 10535 10526 10518 10507 10497 10485 10475 10461 10449 10436 10421 10404 10386 10369 10353 10336 10318 10298 10280 10260 10239 10221 10207 10195 10185 10174 10163 10153
10629 10626 10621 10616 10610 10604 10598 10589 10575 10568 10558 10554 10563 10546 10535 10528 10524 10515 10503 10491 10483 10471 10459 10445 10431 10415 10400 10383 10365 10348 10331 10313 10296 10275 10255 10236 10217 10200 10186 10174 10162 10150 10138 10127
10620 10619 10616 10611 10601 10596 10590 10575 10569 10557 10548 10540 10534 10542 10524 10519 10505 10495 10484 10476 10468 10455 10441 10425 10410 10394 10378 10361 10343 10327 10309 10290 10271 10253 10232 10212 10194 10177 10164 10151 10139 10127 10115 10104
10607 10605 10604 10604 10594 10589 10584 10568 10563 10556 10544 10533 10527 10518 10515 10506 10491 10479 10466 10457 10444 10431 10418 10406 10391 10374 10356 10339 10322 10304 10288 10268 10247 10228 10209 10189 10172 10156 10143 10129 10118 10107 10096 10085
10596 10593 10590 10591 10584 10581 10570 10549 10550 10543 10533 10516 10515 10504 10492 10487 10480 10464 10447 10436 10424 10411 10398 10384 10370 10353 10337 10319 10301 10282 10261 10241 10222 10203 10184 10168 10151 10136 10122 10109 10098 10087 10075 10066
10582 10578 10575 10571 10571 10569 10556 10537 10535 10529 10527 10509 10502 10492 10482 10471 10469 10454 10430 10419 10406 10393 10379 10366 10348 10331 10315 10296 10275 10255 10235 10215 10196 10178 10161 10146 10131 10117 10103 10092 10080 10068 10058 10046
10566 10560 10559 10553 10552 10554 10538 10528 10520 10517 10511 10498 10485 10476 10466 10455 10443 10443 10420 10405 10390 10376 10358 10344 10328 10311 10292 10274 10252 10231 10211 10192 10173 10155 10140 10126 10112 10097 10086 10074 10062 10050 10041 10029
10556 10550 10545 10539 10536 10538 10523 10515 10509 10503 10497 10486 10470 10458 10448 10434 10417 10404 10397 10386 10368 10352 10339 10321 10303 10286 10269 10249 10229 10210 10189 10170 10151 10135 10121 10107 10093 10080 10070 10057 10043 10034 10023 10014
10540 10535 10529 10525 10516 10515 10503 10495 10486 10478 10474 10457 10458 10440 10428 10417 10404 10391 10377 10362 10348 10335 10319 10302 10285 10266 10248 10227 10207 10187 10168 10149 10131 10117 10103 10088 10075 10064 10054 10041 10028 10018 10007 9999
10526 10516 10514 10501 10503 10489 10481 10472 10465 10452 10445 10442 10429 10422 10404 10395 10384 10371 10358 10343 10326 10311 10295 10278 10261 10243 10224 10204 10183 10164 10145 10128 10113 10100 10086 10072 10059 10048 10038 10028 10014 10004 9993 9985
10510 10497 10493 10489 10491 10478 10467 10455 10442 10434 10422 10414 10405 10395 10384 10372 10359 10346 10332 10316 10300 10284 10268 10251 10235 10218 10200 10182 10162 10143 10126 10110 10096 10082 10069 10055 10044 10032 10022 10013 10001 9991 9981 9974
10488 10469 10463 10481 10471 10472 10447 10433 10424 10420 10407 10395 10386 10373 10361 10350 10337 10321 10308 10291 10275 10260 10242 10226 10210 10194 10177 10158 10141 10123 10108 10093 10079 10065 10052 10041 10030 10018 10007 10000 9989 9980 9971 9965
10457 10446 10443 10454 10446 10437 10448 10425 10405 10398 10389 10378 10366 10358 10343 10331 10317 10301 10284 10269 10253 10237 10220 10202 10185 10167 10152 10135 10118 10104 10089 10075 10062 10048 10037 10027 10015 10003 9995 9986 9979 9971 9963 9956